Location: Unspecified
(32.6095°N, 0.0000°E)
Time: 03:06:41
(UTC+00:00)

Envisat - Pass Details

Date: 19 May 2019
Orbit: 764 x 766 km, 98.1° (Epoch: 17 June)

Event Time Altitude Azimuth Distance (km) Brightness Sun altitude
Rises 19:21:34 0° 194° (SSW) 3,217 6.1 -6.0°
Reaches altitude 10° 19:24:10 10° 206° (SSW) 2,295 5.5 -6.5°
Maximum altitude 19:28:27 27° 263° (W) 1,425 5.1 -7.3°
Drops below altitude 10° 19:32:45 10° 322° (NW) 2,306 6.8 -8.1°
Sets 19:35:23 0° 334° (NNW) 3,236 7.3 -8.5°
